User: anonymous   Login
Location: Brede
(50.9167°N, 0.6000°E)
Time: 18:24:26
(UTC+00:00)
Language:

Cosmos 1092 Rocket - Orbit

View from above orbital plane
View from above orbital plane
View from above satellite
View from above satellite

Ground track
Ground track

The orbit data is extracted from the following two-line orbital elements,

1 11327U 79030B   20298.22780311 -.00000086  00000-0 -10212-3 0  9993
2 11327  82.9461 106.2997 0027558 352.9070 179.8539 13.76949777 87729
Epoch (UTC): 24 October 2020 05:28:02
Eccentricity: 0.0027558
inclination: 82.9461°
perigee height: 954 km
apogee height: 995 km
right ascension of ascending node: 106.2997°
argument of perigee: 352.9070°
revolutions per day: 13.76949777
mean anomaly at epoch: 179.8539°
orbit number at epoch: 8772

The dashed part of the orbit path shows where the satellite is in the earth's shadow,  

DLR